Time,TemperatureF,DewpointF,PressureIn,WindDirection,WindDirectionDegrees,WindSpeedMPH,WindSpeedGustMPH,Humidity,HourlyPrecipIn,Conditions,Clouds,dailyrainin,SoftwareType,DateUTC
2013-11-06 00:00:00,45.5,41.3,30.49,SSE,149,0.0,0.0,85,0.00,,,0.00,VWS V14.01,2013-11-06 05:00:00,
2013-11-06 00:01:00,45.5,41.3,30.49,SSE,149,0.0,0.0,85,0.00,,,0.00,VWS V14.01,2013-11-06 05:01:00,
2013-11-06 00:06:00,45.5,41.3,30.49,SSE,149,0.0,0.0,85,0.00,,,0.00,VWS V14.01,2013-11-06 05:06:00,
2013-11-06 00:10:00,44.8,41.2,30.48,SSE,149,0.0,1.0,87,0.00,,,0.00,VWS V15.00,2013-11-06 05:10:00,
2013-11-06 00:11:00,45.4,41.2,30.49,SSE,149,0.0,3.0,85,0.00,,,0.00,VWS V14.01,2013-11-06 05:11:00,
2013-11-06 00:16:00,45.3,41.4,30.49,SSE,149,0.0,0.0,86,0.00,,,0.00,VWS V14.01,2013-11-06 05:16:00,
2013-11-06 00:20:00,44.7,41.1,30.46,SSE,149,0.0,2.0,87,0.00,,,0.00,VWS V15.00,2013-11-06 05:20:00,
2013-11-06 00:21:00,45.3,41.4,30.49,SSE,149,0.0,0.0,86,0.00,,,0.00,VWS V14.01,2013-11-06 05:21:00,
2013-11-06 00:26:00,45.2,41.3,30.49,SSE,149,0.0,4.0,86,0.00,,,0.00,VWS V14.01,2013-11-06 05:26:00,
2013-11-06 00:30:00,44.7,41.4,30.46,NW,319,0.0,2.0,88,0.00,,,0.00,VWS V15.00,2013-11-06 05:30:00,
2013-11-06 00:31:00,45.2,41.3,30.48,SSE,149,0.0,4.0,86,0.00,,,0.00,VWS V14.01,2013-11-06 05:31:00,
2013-11-06 00:36:00,45.2,41.3,30.48,SSE,149,0.0,0.0,86,0.00,,,0.00,VWS V14.01,2013-11-06 05:36:00,
2013-11-06 00:40:00,44.9,41.6,30.46,NW,319,0.0,1.0,88,0.00,,,0.00,VWS V15.00,2013-11-06 05:40:00,
2013-11-06 00:41:00,45.2,41.3,30.48,SSE,149,0.0,0.0,86,0.00,,,0.00,VWS V14.01,2013-11-06 05:41:00,
2013-11-06 00:46:00,45.1,41.2,30.48,SSE,149,0.0,0.0,86,0.00,,,0.00,VWS V14.01,2013-11-06 05:46:00,
2013-11-06 00:50:00,45.2,42.2,30.46,SSW,197,0.0,4.0,89,0.00,,,0.00,VWS V15.00,2013-11-06 05:50:00,
2013-11-06 00:51:00,45.1,41.2,30.48,SSE,149,0.0,0.0,86,0.00,,,0.00,VWS V14.01,2013-11-06 05:51:00,
2013-11-06 00:56:00,45.0,41.1,30.48,SSE,149,0.0,0.0,86,0.00,,,0.00,VWS V14.01,2013-11-06 05:56:00,
2013-11-06 01:00:00,45.5,42.2,30.46,West,273,0.0,3.0,88,0.00,,,0.00,VWS V15.00,2013-11-06 06:00:00,
2013-11-06 01:01:00,45.0,41.4,30.48,SSE,149,0.0,0.0,87,0.00,,,0.00,VWS V14.01,2013-11-06 06:01:00,
2013-11-06 01:06:00,44.9,41.3,30.48,SSE,149,0.0,0.0,87,0.00,,,0.00,VWS V14.01,2013-11-06 06:06:00,
2013-11-06 01:10:00,45.8,42.5,30.46,West,273,0.0,3.0,88,0.00,,,0.00,VWS V15.00,2013-11-06 06:10:00,
2013-11-06 01:11:00,44.8,41.2,30.48,SSE,149,0.0,1.0,87,0.00,,,0.00,VWS V14.01,2013-11-06 06:11:00,
2013-11-06 01:16:00,44.8,41.2,30.46,SSE,149,1.0,2.0,87,0.00,,,0.00,VWS V14.01,2013-11-06 06:16:00,
2013-11-06 01:20:00,46.1,42.8,30.45,WNW,294,0.0,3.0,88,0.00,,,0.00,VWS V15.00,2013-11-06 06:20:00,
2013-11-06 01:21:00,44.7,41.1,30.46,SSE,149,0.0,2.0,87,0.00,,,0.00,VWS V14.01,2013-11-06 06:21:00,
2013-11-06 01:26:00,44.7,41.1,30.46,SSE,149,0.0,0.0,87,0.00,,,0.00,VWS V14.01,2013-11-06 06:26:00,
2013-11-06 01:30:00,46.4,42.8,30.44,West,261,0.0,3.0,87,0.00,,,0.00,VWS V15.00,2013-11-06 06:30:00,
2013-11-06 01:31:00,44.7,41.4,30.46,NW,319,0.0,2.0,88,0.00,,,0.00,VWS V14.01,2013-11-06 06:31:00,
2013-11-06 01:36:00,44.8,41.5,30.46,NW,319,0.0,0.0,88,0.00,,,0.00,VWS V14.01,2013-11-06 06:36:00,
2013-11-06 01:40:00,46.7,42.7,30.44,SW,214,2.0,5.0,86,0.00,,,0.00,VWS V15.00,2013-11-06 06:40:00,
2013-11-06 01:41:00,44.9,41.6,30.46,NW,319,0.0,1.0,88,0.00,,,0.00,VWS V14.01,2013-11-06 06:41:00,
2013-11-06 01:46:00,45.0,41.7,30.46,NW,319,0.0,0.0,88,0.00,,,0.00,VWS V14.01,2013-11-06 06:46:00,
2013-11-06 01:50:00,46.9,42.9,30.43,WSW,253,0.0,2.0,86,0.00,,,0.00,VWS V15.00,2013-11-06 06:50:00,
2013-11-06 01:51:00,45.1,42.1,30.46,NW,321,0.0,4.0,89,0.00,,,0.00,VWS V14.01,2013-11-06 06:51:00,
2013-11-06 01:56:00,45.3,42.0,30.46,SSW,198,0.0,1.0,88,0.00,,,0.00,VWS V14.01,2013-11-06 06:56:00,
2013-11-06 02:00:00,46.9,42.9,30.43,WSW,253,0.0,0.0,86,0.00,,,0.00,VWS V15.00,2013-11-06 07:00:00,
2013-11-06 02:01:00,45.4,42.1,30.46,SSW,200,0.0,1.0,88,0.00,,,0.00,VWS V14.01,2013-11-06 07:01:00,
2013-11-06 02:06:00,45.6,42.3,30.46,West,273,0.0,1.0,88,0.00,,,0.00,VWS V14.01,2013-11-06 07:06:00,
2013-11-06 02:10:00,46.9,42.9,30.43,West,277,0.0,4.0,86,0.00,,,0.00,VWS V15.00,2013-11-06 07:10:00,
2013-11-06 02:11:00,45.7,42.4,30.46,West,271,0.0,3.0,88,0.00,,,0.00,VWS V14.01,2013-11-06 07:11:00,
2013-11-06 02:16:00,45.9,42.5,30.45,WNW,294,0.0,3.0,88,0.00,,,0.00,VWS V14.01,2013-11-06 07:16:00,
2013-11-06 02:20:00,47.0,43.0,30.43,WNW,292,0.0,3.0,86,0.00,,,0.00,VWS V15.00,2013-11-06 07:20:00,
2013-11-06 02:21:00,46.1,42.8,30.45,WNW,294,0.0,3.0,88,0.00,,,0.00,VWS V14.01,2013-11-06 07:21:00,
2013-11-06 02:26:00,46.2,42.5,30.45,WNW,295,0.0,3.0,87,0.00,,,0.00,VWS V14.01,2013-11-06 07:26:00,
2013-11-06 02:30:00,47.0,43.0,30.42,WNW,292,0.0,4.0,86,0.00,,,0.00,VWS V15.00,2013-11-06 07:30:00,
2013-11-06 02:31:00,46.4,42.8,30.44,West,261,0.0,3.0,87,0.00,,,0.00,VWS V14.01,2013-11-06 07:31:00,
2013-11-06 02:36:00,46.5,42.8,30.44,SSE,149,3.0,5.0,87,0.00,,,0.00,VWS V14.01,2013-11-06 07:36:00,
2013-11-06 02:40:00,47.0,43.0,30.42,WNW,292,0.0,1.0,86,0.00,,,0.00,VWS V15.00,2013-11-06 07:40:00,
2013-11-06 02:41:00,46.7,43.0,30.44,SE,138,0.0,5.0,87,0.00,,,0.00,VWS V14.01,2013-11-06 07:41:00,
2013-11-06 02:46:00,46.8,42.8,30.43,SW,214,0.0,2.0,86,0.00,,,0.00,VWS V14.01,2013-11-06 07:46:00,
2013-11-06 02:50:00,47.0,43.0,30.42,WNW,292,0.0,2.0,86,0.00,,,0.00,VWS V15.00,2013-11-06 07:50:00,
2013-11-06 02:51:00,46.8,42.8,30.43,WSW,253,0.0,2.0,86,0.00,,,0.00,VWS V14.01,2013-11-06 07:51:00,
2013-11-06 02:56:00,46.9,42.9,30.43,WSW,253,0.0,0.0,86,0.00,,,0.00,VWS V14.01,2013-11-06 07:56:00,
2013-11-06 03:00:00,47.0,43.0,30.42,WNW,292,0.0,0.0,86,0.00,,,0.00,VWS V15.00,2013-11-06 08:00:00,
2013-11-06 03:01:00,46.9,42.9,30.43,WSW,253,0.0,0.0,86,0.00,,,0.00,VWS V14.01,2013-11-06 08:01:00,
2013-11-06 03:06:00,46.9,42.9,30.43,WSW,253,0.0,0.0,86,0.00,,,0.00,VWS V14.01,2013-11-06 08:06:00,
2013-11-06 03:10:00,47.0,43.0,30.42,WNW,292,0.0,2.0,86,0.00,,,0.00,VWS V15.00,2013-11-06 08:10:00,
2013-11-06 03:11:00,46.9,42.9,30.43,West,277,2.0,4.0,86,0.00,,,0.00,VWS V14.01,2013-11-06 08:11:00,
2013-11-06 03:16:00,47.0,43.0,30.43,WNW,292,0.0,1.0,86,0.00,,,0.00,VWS V14.01,2013-11-06 08:16:00,
2013-11-06 03:20:00,46.9,42.9,30.42,WNW,292,0.0,0.0,86,0.00,,,0.00,VWS V15.00,2013-11-06 08:20:00,
2013-11-06 03:21:00,47.0,43.0,30.43,WNW,292,0.0,3.0,86,0.00,,,0.00,VWS V14.01,2013-11-06 08:21:00,
2013-11-06 03:26:00,47.0,43.0,30.43,WNW,292,0.0,4.0,86,0.00,,,0.00,VWS V14.01,2013-11-06 08:26:00,
2013-11-06 03:30:00,46.9,42.9,30.42,WNW,292,0.0,3.0,86,0.00,,,0.00,VWS V15.00,2013-11-06 08:30:00,
2013-11-06 03:31:00,47.0,43.0,30.43,WNW,292,0.0,4.0,86,0.00,,,0.00,VWS V14.01,2013-11-06 08:31:00,
2013-11-06 03:36:00,47.0,43.0,30.42,WNW,292,0.0,0.0,86,0.00,,,0.00,VWS V14.01,2013-11-06 08:36:00,
2013-11-06 03:40:00,47.0,43.0,30.42,WNW,292,0.0,2.0,86,0.00,,,0.00,VWS V15.00,2013-11-06 08:40:00,
2013-11-06 03:41:00,47.0,43.0,30.42,WNW,292,0.0,1.0,86,0.00,,,0.00,VWS V14.01,2013-11-06 08:41:00,
2013-11-06 03:46:00,47.0,43.0,30.42,WNW,292,0.0,1.0,86,0.00,,,0.00,VWS V14.01,2013-11-06 08:46:00,
2013-11-06 03:50:00,47.0,43.0,30.41,WNW,290,0.0,1.0,86,0.00,,,0.00,VWS V15.00,2013-11-06 08:50:00,
2013-11-06 03:51:00,47.0,43.0,30.42,WNW,292,0.0,2.0,86,0.00,,,0.00,VWS V14.01,2013-11-06 08:51:00,
2013-11-06 03:56:00,47.0,43.0,30.42,WNW,292,0.0,0.0,86,0.00,,,0.00,VWS V14.01,2013-11-06 08:56:00,
2013-11-06 04:00:00,47.0,43.0,30.41,West,278,0.0,2.0,86,0.00,,,0.00,VWS V15.00,2013-11-06 09:00:00,
2013-11-06 04:01:00,47.0,43.0,30.42,WNW,292,0.0,0.0,86,0.00,,,0.00,VWS V14.01,2013-11-06 09:01:00,
2013-11-06 04:06:00,47.0,43.0,30.42,WNW,292,0.0,0.0,86,0.00,,,0.00,VWS V14.01,2013-11-06 09:06:00,
2013-11-06 04:10:00,47.1,43.1,30.41,West,278,0.0,2.0,86,0.00,,,0.00,VWS V15.00,2013-11-06 09:10:00,
2013-11-06 04:11:00,47.0,43.0,30.42,WNW,292,0.0,2.0,86,0.00,,,0.00,VWS V14.01,2013-11-06 09:11:00,
2013-11-06 04:16:00,47.0,43.0,30.42,WNW,292,0.0,0.0,86,0.00,,,0.00,VWS V14.01,2013-11-06 09:16:00,
2013-11-06 04:20:00,47.2,43.2,30.41,West,279,0.0,3.0,86,0.00,,,0.00,VWS V15.00,2013-11-06 09:20:00,
2013-11-06 04:21:00,46.9,42.9,30.42,WNW,292,0.0,0.0,86,0.00,,,0.00,VWS V14.01,2013-11-06 09:21:00,
2013-11-06 04:26:00,46.9,42.9,30.42,WNW,292,0.0,3.0,86,0.00,,,0.00,VWS V14.01,2013-11-06 09:26:00,
2013-11-06 04:30:00,47.3,43.3,30.41,West,271,2.0,5.0,86,0.00,,,0.00,VWS V15.00,2013-11-06 09:30:00,
2013-11-06 04:31:00,47.0,43.0,30.42,WNW,292,0.0,3.0,86,0.00,,,0.00,VWS V14.01,2013-11-06 09:31:00,
2013-11-06 04:36:00,46.9,42.9,30.42,WNW,292,0.0,2.0,86,0.00,,,0.00,VWS V14.01,2013-11-06 09:36:00,
2013-11-06 04:40:00,47.3,43.3,30.41,West,271,0.0,3.0,86,0.00,,,0.00,VWS V15.00,2013-11-06 09:40:00,
2013-11-06 04:41:00,47.0,43.0,30.42,WNW,292,0.0,2.0,86,0.00,,,0.00,VWS V14.01,2013-11-06 09:41:00,
2013-11-06 04:46:00,47.0,43.0,30.42,WNW,292,0.0,0.0,86,0.00,,,0.00,VWS V14.01,2013-11-06 09:46:00,
2013-11-06 04:50:00,47.4,43.4,30.40,West,271,0.0,1.0,86,0.00,,,0.00,VWS V15.00,2013-11-06 09:50:00,
2013-11-06 04:51:00,47.0,43.0,30.41,WNW,292,0.0,0.0,86,0.00,,,0.00,VWS V14.01,2013-11-06 09:51:00,
2013-11-06 04:56:00,47.0,43.0,30.41,WNW,290,0.0,2.0,86,0.00,,,0.00,VWS V14.01,2013-11-06 09:56:00,
2013-11-06 05:00:00,47.3,43.3,30.39,West,271,0.0,2.0,86,0.00,,,0.00,VWS V15.00,2013-11-06 10:00:00,
2013-11-06 05:01:00,47.0,43.0,30.41,West,278,0.0,2.0,86,0.00,,,0.00,VWS V14.01,2013-11-06 10:01:00,
2013-11-06 05:06:00,47.1,43.1,30.41,West,278,2.0,2.0,86,0.00,,,0.00,VWS V14.01,2013-11-06 10:06:00,
2013-11-06 05:10:00,47.3,43.3,30.39,WNW,282,0.0,2.0,86,0.00,,,0.00,VWS V15.00,2013-11-06 10:10:00,
2013-11-06 05:11:00,47.1,43.1,30.41,West,278,0.0,2.0,86,0.00,,,0.00,VWS V14.01,2013-11-06 10:11:00,
2013-11-06 05:16:00,47.1,43.1,30.41,West,278,2.0,3.0,86,0.00,,,0.00,VWS V14.01,2013-11-06 10:16:00,
2013-11-06 05:20:00,47.2,43.2,30.41,West,279,0.0,3.0,86,0.00,,,0.00,VWS V14.01,2013-11-06 10:20:00,
2013-11-06 05:25:00,47.2,43.2,30.41,West,274,0.0,4.0,86,0.00,,,0.00,VWS V14.01,2013-11-06 10:25:00,
2013-11-06 05:30:00,47.3,43.3,30.41,WSW,248,5.0,5.0,86,0.00,,,0.00,VWS V14.01,2013-11-06 10:30:00,
2013-11-06 05:35:00,47.3,43.3,30.41,West,271,0.0,3.0,86,0.00,,,0.00,VWS V14.01,2013-11-06 10:35:00,
2013-11-06 05:40:00,47.3,43.3,30.41,West,271,0.0,3.0,86,0.00,,,0.00,VWS V14.01,2013-11-06 10:40:00,
2013-11-06 05:45:00,47.4,43.4,30.41,West,271,0.0,0.0,86,0.00,,,0.00,VWS V14.01,2013-11-06 10:45:00,
2013-11-06 05:50:00,47.4,43.4,30.40,West,271,0.0,1.0,86,0.00,,,0.00,VWS V14.01,2013-11-06 10:50:00,
2013-11-06 05:55:00,47.4,43.4,30.40,West,271,0.0,2.0,86,0.00,,,0.00,VWS V14.01,2013-11-06 10:55:00,
2013-11-06 06:00:00,47.4,43.4,30.40,West,271,0.0,2.0,86,0.00,,,0.00,VWS V14.01,2013-11-06 11:00:00,
2013-11-06 06:05:00,47.3,43.3,30.39,West,271,0.0,0.0,86,0.00,,,0.00,VWS V14.01,2013-11-06 11:05:00,
2013-11-06 06:10:00,47.3,43.3,30.39,WNW,282,0.0,2.0,86,0.00,,,0.00,VWS V14.01,2013-11-06 11:10:00,
2013-11-06 06:15:00,47.3,43.3,30.39,WNW,282,0.0,4.0,86,0.00,,,0.00,VWS V14.01,2013-11-06 11:15:00,
2013-11-06 06:20:00,47.3,43.3,30.39,West,280,0.0,4.0,86,0.00,,,0.00,VWS V14.01,2013-11-06 11:20:00,
2013-11-06 06:25:00,47.3,43.3,30.39,ESE,111,0.0,2.0,86,0.00,,,0.00,VWS V14.01,2013-11-06 11:25:00,
2013-11-06 06:30:00,47.2,43.2,30.39,West,267,0.0,3.0,86,0.00,,,0.00,VWS V14.01,2013-11-06 11:30:00,
2013-11-06 06:35:00,47.2,43.2,30.39,SSE,155,0.0,5.0,86,0.00,,,0.00,VWS V14.01,2013-11-06 11:35:00,
2013-11-06 06:40:00,47.2,43.2,30.39,SSE,155,0.0,6.0,86,0.00,,,0.00,VWS V14.01,2013-11-06 11:40:00,
2013-11-06 06:45:00,47.2,43.2,30.39,SSE,147,0.0,4.0,86,0.00,,,0.00,VWS V14.01,2013-11-06 11:45:00,
2013-11-06 06:50:00,47.2,43.2,30.37,ESE,107,3.0,5.0,86,0.00,,,0.00,VWS V14.01,2013-11-06 11:50:00,
2013-11-06 06:55:00,47.2,43.2,30.37,ESE,121,0.0,3.0,86,0.00,,,0.00,VWS V14.01,2013-11-06 11:55:00,
2013-11-06 07:00:00,47.8,43.8,30.38,SSE,150,0.0,4.0,86,0.00,,,0.00,VWS V15.00,2013-11-06 12:00:00,
2013-11-06 07:01:00,47.2,43.2,30.37,ESE,121,0.0,3.0,86,0.00,,,0.00,VWS V14.01,2013-11-06 12:01:00,
2013-11-06 07:06:00,47.2,43.2,30.38,West,261,0.0,4.0,86,0.00,,,0.00,VWS V14.01,2013-11-06 12:06:00,
2013-11-06 07:10:00,48.0,44.0,30.38,WSW,250,0.0,5.0,86,0.00,,,0.00,VWS V15.00,2013-11-06 12:10:00,
2013-11-06 07:11:00,47.3,43.3,30.38,West,261,0.0,4.0,86,0.00,,,0.00,VWS V14.01,2013-11-06 12:11:00,
2013-11-06 07:16:00,47.3,43.3,30.38,West,261,0.0,0.0,86,0.00,,,0.00,VWS V14.01,2013-11-06 12:16:00,
2013-11-06 07:20:00,48.1,43.8,30.39,WSW,252,0.0,4.0,85,0.00,,,0.00,VWS V15.00,2013-11-06 12:20:00,
2013-11-06 07:21:00,47.3,43.3,30.39,West,261,0.0,1.0,86,0.00,,,0.00,VWS V14.01,2013-11-06 12:21:00,
2013-11-06 07:26:00,47.3,43.3,30.39,West,259,0.0,4.0,86,0.00,,,0.00,VWS V14.01,2013-11-06 12:26:00,
2013-11-06 07:30:00,48.2,43.9,30.39,WNW,298,0.0,6.0,85,0.00,,,0.00,VWS V15.00,2013-11-06 12:30:00,
2013-11-06 07:31:00,47.4,43.7,30.39,West,277,0.0,5.0,87,0.00,,,0.00,VWS V14.01,2013-11-06 12:31:00,
2013-11-06 07:36:00,47.5,43.8,30.39,WSW,243,2.0,4.0,87,0.00,,,0.00,VWS V14.01,2013-11-06 12:36:00,
2013-11-06 07:40:00,48.4,44.1,30.39,SW,229,4.0,4.0,85,0.00,,,0.00,VWS V15.00,2013-11-06 12:40:00,
2013-11-06 07:41:00,47.5,43.5,30.39,WSW,252,2.0,4.0,86,0.00,,,0.00,VWS V14.01,2013-11-06 12:41:00,
2013-11-06 07:46:00,47.6,43.6,30.39,West,281,0.0,3.0,86,0.00,,,0.00,VWS V14.01,2013-11-06 12:46:00,
2013-11-06 07:50:00,48.6,44.3,30.38,West,274,3.0,4.0,85,0.00,,,0.00,VWS V15.00,2013-11-06 12:50:00,
2013-11-06 07:51:00,47.6,43.6,30.39,West,281,0.0,3.0,86,0.00,,,0.00,VWS V14.01,2013-11-06 12:51:00,
2013-11-06 07:56:00,47.7,43.7,30.39,West,281,0.0,0.0,86,0.00,,,0.00,VWS V14.01,2013-11-06 12:56:00,
2013-11-06 08:00:00,48.7,44.4,30.37,West,273,1.0,3.0,85,0.00,,,0.00,VWS V15.00,2013-11-06 13:00:00,
2013-11-06 08:01:00,47.8,43.8,30.39,SW,218,2.0,4.0,86,0.00,,,0.00,VWS V14.01,2013-11-06 13:01:00,
2013-11-06 08:06:00,47.9,43.9,30.38,SSE,153,3.0,5.0,86,0.00,,,0.00,VWS V14.01,2013-11-06 13:06:00,
2013-11-06 08:10:00,49.0,44.7,30.37,South,177,0.0,4.0,85,0.00,,,0.00,VWS V15.00,2013-11-06 13:10:00,
2013-11-06 08:11:00,48.0,44.0,30.38,WSW,252,4.0,5.0,86,0.00,,,0.00,VWS V14.01,2013-11-06 13:11:00,
2013-11-06 08:16:00,48.1,44.1,30.38,West,265,2.0,4.0,86,0.00,,,0.00,VWS V14.01,2013-11-06 13:16:00,
2013-11-06 08:20:00,49.3,44.7,30.36,NW,323,0.0,7.0,84,0.00,,,0.00,VWS V15.00,2013-11-06 13:20:00,
2013-11-06 08:21:00,48.2,43.9,30.39,WSW,252,0.0,4.0,85,0.00,,,0.00,VWS V14.01,2013-11-06 13:21:00,
2013-11-06 08:26:00,48.2,43.9,30.39,WSW,252,0.0,3.0,85,0.00,,,0.00,VWS V14.01,2013-11-06 13:26:00,
2013-11-06 08:30:00,49.7,45.1,30.36,SW,218,1.0,4.0,84,0.00,,,0.00,VWS V15.00,2013-11-06 13:30:00,
2013-11-06 08:31:00,48.2,43.9,30.39,WNW,298,0.0,6.0,85,0.00,,,0.00,VWS V14.01,2013-11-06 13:31:00,
2013-11-06 08:35:00,48.3,44.0,30.39,West,269,0.0,3.0,85,0.00,,,0.00,VWS V14.01,2013-11-06 13:35:00,
2013-11-06 08:40:00,49.9,45.3,30.36,WSW,251,0.0,5.0,84,0.00,,,0.00,VWS V15.00,2013-11-06 13:40:00,
2013-11-06 08:41:00,48.4,44.1,30.39,NW,304,0.0,3.0,85,0.00,,,0.00,VWS V14.01,2013-11-06 13:41:00,
2013-11-06 08:46:00,48.5,44.2,30.39,WNW,290,0.0,4.0,85,0.00,,,0.00,VWS V14.01,2013-11-06 13:46:00,
2013-11-06 08:50:00,48.6,44.3,30.38,WNW,290,0.0,4.0,85,0.00,,,0.00,VWS V14.01,2013-11-06 13:50:00,
2013-11-06 08:55:00,48.6,44.3,30.38,West,273,0.0,3.0,85,0.00,,,0.00,VWS V14.01,2013-11-06 13:55:00,
2013-11-06 09:00:00,48.7,44.4,30.38,West,273,0.0,3.0,85,0.00,,,0.00,VWS V14.01,2013-11-06 14:00:00,
2013-11-06 09:05:00,48.8,44.5,30.37,SSE,168,0.0,3.0,85,0.00,,,0.00,VWS V14.01,2013-11-06 14:05:00,
2013-11-06 09:10:00,49.0,44.7,30.37,South,177,0.0,4.0,85,0.00,,,0.00,VWS V14.01,2013-11-06 14:10:00,
2013-11-06 09:15:00,49.1,44.8,30.37,SSW,200,1.0,4.0,85,0.00,,,0.00,VWS V14.01,2013-11-06 14:15:00,
2013-11-06 09:20:00,49.3,44.7,30.36,SSW,213,2.0,7.0,84,0.00,,,0.00,VWS V14.01,2013-11-06 14:20:00,
2013-11-06 09:25:00,49.5,44.9,30.36,SSW,212,3.0,4.0,84,0.00,,,0.00,VWS V14.01,2013-11-06 14:25:00,
2013-11-06 09:30:00,49.7,45.1,30.36,SW,218,0.0,4.0,84,0.00,,,0.00,VWS V14.01,2013-11-06 14:30:00,
2013-11-06 09:35:00,49.8,45.2,30.36,SSW,209,1.0,5.0,84,0.00,,,0.00,VWS V14.01,2013-11-06 14:35:00,
2013-11-06 09:40:00,49.9,45.0,30.36,West,264,0.0,5.0,83,0.00,,,0.00,VWS V14.01,2013-11-06 14:40:00,
2013-11-06 09:45:00,50.0,45.0,30.36,West,260,3.0,7.0,83,0.00,,,0.00,VWS V14.01,2013-11-06 14:45:00,
2013-11-06 09:50:00,50.3,45.3,30.35,SSW,209,2.0,7.0,83,0.00,,,0.00,VWS V14.01,2013-11-06 14:50:00,
2013-11-06 09:55:00,50.5,45.5,30.35,WSW,240,2.0,5.0,83,0.00,,,0.00,VWS V14.01,2013-11-06 14:55:00,
2013-11-06 10:00:00,50.6,45.6,30.35,SW,229,0.0,5.0,83,0.00,,,0.00,VWS V14.01,2013-11-06 15:00:00,
2013-11-06 10:05:00,50.8,45.5,30.37,SW,224,0.0,4.0,82,0.00,,,0.00,VWS V14.01,2013-11-06 15:05:00,
2013-11-06 10:10:00,51.0,45.7,30.37,WSW,245,0.0,4.0,82,0.00,,,0.00,VWS V14.01,2013-11-06 15:10:00,
2013-11-06 10:15:00,51.3,46.0,30.37,WSW,245,0.0,1.0,82,0.00,,,0.00,VWS V14.01,2013-11-06 15:15:00,
2013-11-06 10:20:00,51.5,45.9,30.36,WSW,239,1.0,6.0,81,0.00,,,0.00,VWS V14.01,2013-11-06 15:20:00,
2013-11-06 10:25:00,51.8,45.8,30.36,SSE,155,0.0,5.0,80,0.00,,,0.00,VWS V14.01,2013-11-06 15:25:00,
2013-11-06 10:30:00,52.1,45.8,30.36,SW,223,1.0,7.0,79,0.00,,,0.00,VWS V14.01,2013-11-06 15:30:00,
2013-11-06 10:35:00,52.3,46.0,30.35,SW,221,0.0,3.0,79,0.00,,,0.00,VWS V14.01,2013-11-06 15:35:00,
2013-11-06 10:40:00,52.7,46.4,30.35,SSW,210,0.0,4.0,79,0.00,,,0.00,VWS V14.01,2013-11-06 15:40:00,
2013-11-06 10:45:00,53.2,46.2,30.35,WSW,243,0.0,5.0,77,0.00,,,0.00,VWS V14.01,2013-11-06 15:45:00,
2013-11-06 10:50:00,53.5,46.1,30.35,SW,229,3.0,7.0,76,0.00,,,0.00,VWS V14.01,2013-11-06 15:50:00,
2013-11-06 10:55:00,53.6,45.9,30.35,East,88,1.0,6.0,75,0.00,,,0.00,VWS V14.01,2013-11-06 15:55:00,
2013-11-06 11:00:00,53.6,45.5,30.35,SSW,207,6.0,8.0,74,0.00,,,0.00,VWS V14.01,2013-11-06 16:00:00,
2013-11-06 11:05:00,53.7,45.6,30.34,SW,223,6.0,8.0,74,0.00,,,0.00,VWS V14.01,2013-11-06 16:05:00,
2013-11-06 11:10:00,53.7,45.6,30.34,West,274,0.0,8.0,74,0.00,,,0.00,VWS V14.01,2013-11-06 16:10:00,
2013-11-06 11:15:00,53.7,45.3,30.34,SSW,202,0.0,5.0,73,0.00,,,0.00,VWS V14.01,2013-11-06 16:15:00,
2013-11-06 11:20:00,53.9,45.8,30.32,SSW,201,2.0,5.0,74,0.00,,,0.00,VWS V14.01,2013-11-06 16:20:00,
2013-11-06 11:25:00,54.1,45.7,30.32,SSE,152,0.0,5.0,73,0.00,,,0.00,VWS V14.01,2013-11-06 16:25:00,
2013-11-06 11:30:00,54.2,45.4,30.32,SSW,211,1.0,10.0,72,0.00,,,0.00,VWS V14.01,2013-11-06 16:30:00,
2013-11-06 11:35:00,54.3,45.5,30.32,SSW,209,2.0,3.0,72,0.00,,,0.00,VWS V14.01,2013-11-06 16:35:00,
2013-11-06 11:40:00,54.4,45.6,30.32,WSW,249,0.0,5.0,72,0.00,,,0.00,VWS V14.01,2013-11-06 16:40:00,
2013-11-06 11:45:00,54.5,45.3,30.32,SE,136,3.0,6.0,71,0.00,,,0.00,VWS V14.01,2013-11-06 16:45:00,
2013-11-06 11:50:00,54.6,45.4,30.31,SSE,168,0.0,6.0,71,0.00,,,0.00,VWS V14.01,2013-11-06 16:50:00,
2013-11-06 11:55:00,54.7,45.5,30.31,SSE,154,5.0,7.0,71,0.00,,,0.00,VWS V14.01,2013-11-06 16:55:00,
2013-11-06 12:00:00,54.7,45.5,30.31,SSE,150,0.0,7.0,71,0.00,,,0.00,VWS V14.01,2013-11-06 17:00:00,
2013-11-06 12:05:00,54.7,45.5,30.29,SE,134,2.0,5.0,71,0.00,,,0.00,VWS V14.01,2013-11-06 17:05:00,
2013-11-06 12:10:00,54.7,45.5,30.29,SE,136,5.0,6.0,71,0.00,,,0.00,VWS V14.01,2013-11-06 17:10:00,
2013-11-06 12:15:00,54.7,45.5,30.29,West,273,0.0,5.0,71,0.00,,,0.00,VWS V14.01,2013-11-06 17:15:00,
2013-11-06 12:20:00,54.7,45.1,30.29,SSE,155,0.0,6.0,70,0.00,,,0.00,VWS V14.01,2013-11-06 17:20:00,
2013-11-06 12:25:00,54.7,45.1,30.29,SSE,158,3.0,3.0,70,0.00,,,0.00,VWS V14.01,2013-11-06 17:25:00,
2013-11-06 12:30:00,54.8,45.6,30.29,SW,229,1.0,5.0,71,0.00,,,0.00,VWS V14.01,2013-11-06 17:30:00,
2013-11-06 12:35:00,54.8,45.6,30.28,SSE,148,0.0,4.0,71,0.00,,,0.00,VWS V14.01,2013-11-06 17:35:00,
2013-11-06 12:40:00,54.8,45.2,30.28,SSE,148,1.0,5.0,70,0.00,,,0.00,VWS V14.01,2013-11-06 17:40:00,
2013-11-06 12:45:00,54.9,45.3,30.28,SSE,148,0.0,2.0,70,0.00,,,0.00,VWS V14.01,2013-11-06 17:45:00,
2013-11-06 12:50:00,55.1,45.5,30.26,South,169,0.0,6.0,70,0.00,,,0.00,VWS V14.01,2013-11-06 17:50:00,
2013-11-06 12:55:00,55.3,45.3,30.26,SSE,148,1.0,8.0,69,0.00,,,0.00,VWS V14.01,2013-11-06 17:55:00,
2013-11-06 13:00:00,55.5,45.5,30.26,WSW,246,3.0,8.0,69,0.00,,,0.00,VWS V14.01,2013-11-06 18:00:00,
2013-11-06 13:05:00,55.7,45.7,30.26,SW,229,3.0,4.0,69,0.00,,,0.00,VWS V14.01,2013-11-06 18:05:00,
2013-11-06 13:10:00,55.7,45.3,30.26,SSW,195,0.0,11.0,68,0.00,,,0.00,VWS V14.01,2013-11-06 18:10:00,
2013-11-06 13:15:00,55.8,45.4,30.26,SW,227,3.0,7.0,68,0.00,,,0.00,VWS V14.01,2013-11-06 18:15:00,
2013-11-06 13:20:00,55.9,45.9,30.26,SSW,202,1.0,7.0,69,0.00,,,0.00,VWS V14.01,2013-11-06 18:20:00,
2013-11-06 13:25:00,55.9,45.5,30.26,SSE,148,0.0,6.0,68,0.00,,,0.00,VWS V14.01,2013-11-06 18:25:00,
2013-11-06 13:30:00,56.1,46.1,30.26,SSW,213,1.0,6.0,69,0.00,,,0.00,VWS V14.01,2013-11-06 18:30:00,
2013-11-06 13:35:00,56.1,46.1,30.25,WSW,238,0.0,6.0,69,0.00,,,0.00,VWS V14.01,2013-11-06 18:35:00,
2013-11-06 13:40:00,56.1,46.1,30.25,SSE,148,1.0,6.0,69,0.00,,,0.00,VWS V14.01,2013-11-06 18:40:00,
2013-11-06 13:45:00,56.1,46.1,30.25,SSE,153,4.0,4.0,69,0.00,,,0.00,VWS V14.01,2013-11-06 18:45:00,
2013-11-06 13:50:00,56.2,46.6,30.24,SSE,153,0.0,7.0,70,0.00,,,0.00,VWS V14.01,2013-11-06 18:50:00,
2013-11-06 13:55:00,56.2,46.6,30.24,SSE,153,4.0,4.0,70,0.00,,,0.00,VWS V14.01,2013-11-06 18:55:00,
2013-11-06 14:00:00,56.3,46.7,30.24,SSE,159,3.0,8.0,70,0.00,,,0.00,VWS V14.01,2013-11-06 19:00:00,
2013-11-06 14:05:00,56.4,46.8,30.24,South,186,4.0,4.0,70,0.00,,,0.00,VWS V14.01,2013-11-06 19:05:00,
2013-11-06 14:10:00,56.5,46.8,30.24,SSW,195,1.0,4.0,70,0.00,,,0.00,VWS V14.01,2013-11-06 19:10:00,
2013-11-06 14:15:00,56.6,46.9,30.24,South,179,1.0,4.0,70,0.00,,,0.00,VWS V14.01,2013-11-06 19:15:00,
2013-11-06 14:20:00,56.6,46.9,30.23,South,188,0.0,5.0,70,0.00,,,0.00,VWS V14.01,2013-11-06 19:20:00,
2013-11-06 14:25:00,56.7,47.0,30.23,SE,127,2.0,5.0,70,0.00,,,0.00,VWS V14.01,2013-11-06 19:25:00,
2013-11-06 14:30:00,56.8,47.1,30.23,SSE,152,1.0,6.0,70,0.00,,,0.00,VWS V14.01,2013-11-06 19:30:00,
2013-11-06 14:35:00,56.9,47.2,30.23,SSE,155,3.0,3.0,70,0.00,,,0.00,VWS V14.01,2013-11-06 19:35:00,
2013-11-06 14:40:00,56.9,47.2,30.23,SSE,166,2.0,5.0,70,0.00,,,0.00,VWS V14.01,2013-11-06 19:40:00,
2013-11-06 14:45:00,56.9,47.2,30.23,South,173,0.0,4.0,70,0.00,,,0.00,VWS V14.01,2013-11-06 19:45:00,
2013-11-06 14:50:00,57.0,47.3,30.23,South,175,0.0,5.0,70,0.00,,,0.00,VWS V14.01,2013-11-06 19:50:00,
2013-11-06 14:55:00,57.0,47.3,30.23,South,175,2.0,3.0,70,0.00,,,0.00,VWS V14.01,2013-11-06 19:55:00,
2013-11-06 15:00:00,57.1,47.4,30.23,SE,145,0.0,4.0,70,0.00,,,0.00,VWS V14.01,2013-11-06 20:00:00,
2013-11-06 15:05:00,57.1,47.4,30.23,SE,137,0.0,4.0,70,0.00,,,0.00,VWS V14.01,2013-11-06 20:05:00,
2013-11-06 15:10:00,57.1,47.4,30.23,SE,137,0.0,4.0,70,0.00,,,0.00,VWS V14.01,2013-11-06 20:10:00,
2013-11-06 15:15:00,57.1,47.4,30.23,SE,137,0.0,3.0,70,0.00,,,0.00,VWS V14.01,2013-11-06 20:15:00,
2013-11-06 15:20:00,57.2,47.5,30.22,SE,137,1.0,4.0,70,0.00,,,0.00,VWS V14.01,2013-11-06 20:20:00,
2013-11-06 15:25:00,57.2,47.5,30.22,SE,144,2.0,3.0,70,0.00,,,0.00,VWS V14.01,2013-11-06 20:25:00,
2013-11-06 15:30:00,57.3,47.6,30.22,SE,144,2.0,4.0,70,0.00,,,0.00,VWS V14.01,2013-11-06 20:30:00,
2013-11-06 15:35:00,57.3,47.6,30.21,SE,144,1.0,5.0,70,0.00,,,0.00,VWS V14.01,2013-11-06 20:35:00,
2013-11-06 15:40:00,57.3,47.6,30.21,SE,144,2.0,5.0,70,0.00,,,0.00,VWS V14.01,2013-11-06 20:40:00,
2013-11-06 15:45:00,57.3,47.6,30.21,SE,144,0.0,3.0,70,0.00,,,0.00,VWS V14.01,2013-11-06 20:45:00,
2013-11-06 15:50:00,57.3,47.6,30.21,SE,144,0.0,3.0,70,0.00,,,0.00,VWS V14.01,2013-11-06 20:50:00,
2013-11-06 15:55:00,57.3,47.6,30.21,SSE,162,1.0,4.0,70,0.00,,,0.00,VWS V14.01,2013-11-06 20:55:00,
2013-11-06 16:00:00,57.3,47.6,30.21,SSE,162,0.0,5.0,70,0.00,,,0.00,VWS V14.01,2013-11-06 21:00:00,
2013-11-06 16:05:00,57.3,47.6,30.21,SSE,162,0.0,3.0,70,0.00,,,0.00,VWS V14.01,2013-11-06 21:05:00,
2013-11-06 16:10:00,57.3,47.6,30.21,SSW,192,0.0,3.0,70,0.00,,,0.00,VWS V14.01,2013-11-06 21:10:00,
2013-11-06 16:15:00,57.4,47.7,30.21,SSW,192,1.0,4.0,70,0.00,,,0.00,VWS V14.01,2013-11-06 21:15:00,
2013-11-06 16:20:00,57.4,47.7,30.19,SSW,192,0.0,4.0,70,0.00,,,0.00,VWS V14.01,2013-11-06 21:20:00,
2013-11-06 16:25:00,57.5,47.8,30.19,SSW,192,0.0,2.0,70,0.00,,,0.00,VWS V14.01,2013-11-06 21:25:00,
2013-11-06 16:30:00,57.5,47.8,30.19,SE,144,0.0,4.0,70,0.00,,,0.00,VWS V14.01,2013-11-06 21:30:00,
2013-11-06 16:35:00,57.5,47.8,30.19,SE,144,1.0,4.0,70,0.00,,,0.00,VWS V14.01,2013-11-06 21:35:00,
2013-11-06 16:40:00,57.5,47.8,30.19,SE,144,1.0,4.0,70,0.00,,,0.00,VWS V14.01,2013-11-06 21:40:00,
2013-11-06 16:45:00,57.5,47.8,30.19,SE,144,0.0,2.0,70,0.00,,,0.00,VWS V14.01,2013-11-06 21:45:00,
2013-11-06 16:50:00,57.5,47.8,30.18,SE,144,3.0,4.0,70,0.00,,,0.00,VWS V14.01,2013-11-06 21:50:00,
2013-11-06 16:55:00,57.5,47.8,30.18,SSE,149,0.0,3.0,70,0.00,,,0.00,VWS V14.01,2013-11-06 21:55:00,
2013-11-06 17:00:00,57.4,47.7,30.18,SSE,147,5.0,6.0,70,0.00,,,0.00,VWS V14.01,2013-11-06 22:00:00,
2013-11-06 17:05:00,57.3,47.6,30.17,SSE,154,2.0,5.0,70,0.00,,,0.00,VWS V14.01,2013-11-06 22:05:00,
2013-11-06 17:10:00,57.2,47.9,30.17,SSE,154,2.0,5.0,71,0.00,,,0.00,VWS V14.01,2013-11-06 22:10:00,
2013-11-06 17:15:00,57.2,47.9,30.17,SSE,163,0.0,5.0,71,0.00,,,0.00,VWS V14.01,2013-11-06 22:15:00,
2013-11-06 17:20:00,57.1,47.8,30.17,SSE,163,0.0,5.0,71,0.00,,,0.00,VWS V14.01,2013-11-06 22:20:00,
2013-11-06 17:25:00,57.0,47.7,30.17,SSE,155,0.0,3.0,71,0.00,,,0.00,VWS V14.01,2013-11-06 22:25:00,
2013-11-06 17:30:00,57.0,47.7,30.17,SSE,147,6.0,7.0,71,0.00,,,0.00,VWS V14.01,2013-11-06 22:30:00,
2013-11-06 17:35:00,57.0,47.7,30.17,SSE,149,0.0,6.0,71,0.00,,,0.00,VWS V14.01,2013-11-06 22:35:00,
2013-11-06 17:40:00,57.0,47.7,30.17,SSE,148,4.0,6.0,71,0.00,,,0.00,VWS V14.01,2013-11-06 22:40:00,
2013-11-06 17:45:00,57.0,48.1,30.17,SE,144,3.0,4.0,72,0.00,,,0.00,VWS V14.01,2013-11-06 22:45:00,
2013-11-06 17:50:00,56.9,48.0,30.16,SE,144,0.0,4.0,72,0.00,,,0.00,VWS V14.01,2013-11-06 22:50:00,
2013-11-06 17:55:00,57.0,48.1,30.16,SE,137,0.0,5.0,72,0.00,,,0.00,VWS V14.01,2013-11-06 22:55:00,
2013-11-06 18:00:00,57.0,48.1,30.16,SE,137,0.0,5.0,72,0.00,,,0.00,VWS V14.01,2013-11-06 23:00:00,
2013-11-06 18:05:00,56.9,48.0,30.16,SE,137,0.0,1.0,72,0.00,,,0.00,VWS V14.01,2013-11-06 23:05:00,
2013-11-06 18:10:00,56.9,48.0,30.16,SE,137,0.0,1.0,72,0.00,,,0.00,VWS V14.01,2013-11-06 23:10:00,
2013-11-06 18:15:00,56.9,48.3,30.16,SE,137,0.0,3.0,73,0.00,,,0.00,VWS V14.01,2013-11-06 23:15:00,
2013-11-06 18:20:00,56.8,48.2,30.16,SE,137,4.0,4.0,73,0.00,,,0.00,VWS V14.01,2013-11-06 23:20:00,
2013-11-06 18:25:00,56.8,48.2,30.16,SE,137,0.0,4.0,73,0.00,,,0.00,VWS V14.01,2013-11-06 23:25:00,
2013-11-06 18:30:00,56.8,48.2,30.16,South,182,2.0,4.0,73,0.00,,,0.00,VWS V14.01,2013-11-06 23:30:00,
2013-11-06 18:35:00,56.8,48.2,30.16,SSE,168,0.0,2.0,73,0.00,,,0.00,VWS V14.01,2013-11-06 23:35:00,
2013-11-06 18:40:00,56.7,48.2,30.16,SSE,167,1.0,2.0,73,0.00,,,0.00,VWS V14.01,2013-11-06 23:40:00,
2013-11-06 18:45:00,56.7,48.5,30.16,SSE,167,0.0,2.0,74,0.00,,,0.00,VWS V14.01,2013-11-06 23:45:00,
2013-11-06 18:50:00,56.6,48.4,30.15,SSE,147,3.0,6.0,74,0.00,,,0.00,VWS V14.01,2013-11-06 23:50:00,
2013-11-06 18:55:00,56.6,48.8,30.15,SE,138,7.0,7.0,75,0.00,,,0.00,VWS V14.01,2013-11-06 23:55:00,
2013-11-06 19:00:00,56.4,48.6,30.15,SE,129,0.0,7.0,75,0.00,,,0.00,VWS V14.01,2013-11-07 00:00:00,
2013-11-06 19:05:00,56.4,48.9,30.14,SSE,163,1.0,5.0,76,0.00,,,0.00,VWS V14.01,2013-11-07 00:05:00,
2013-11-06 19:10:00,56.3,48.8,30.14,South,169,2.0,5.0,76,0.00,,,0.00,VWS V14.01,2013-11-07 00:10:00,
2013-11-06 19:15:00,56.1,49.0,30.14,SSW,194,3.0,7.0,77,0.00,,,0.00,VWS V14.01,2013-11-07 00:15:00,
2013-11-06 19:20:00,56.0,48.9,30.14,SW,226,4.0,8.0,77,0.00,,,0.00,VWS V14.01,2013-11-07 00:20:00,
2013-11-06 19:25:00,55.9,48.8,30.14,SE,145,3.0,7.0,77,0.00,,,0.00,VWS V14.01,2013-11-07 00:25:00,
2013-11-06 19:30:00,55.7,49.0,30.14,SE,142,1.0,8.0,78,0.00,,,0.00,VWS V14.01,2013-11-07 00:30:00,
2013-11-06 19:35:00,55.6,48.9,30.14,West,260,2.0,3.0,78,0.00,,,0.00,VWS V14.01,2013-11-07 00:35:00,
2013-11-06 19:40:00,55.4,48.7,30.14,SW,217,0.0,4.0,78,0.00,,,0.00,VWS V14.01,2013-11-07 00:40:00,
2013-11-06 19:45:00,55.2,48.8,30.14,SE,146,0.0,3.0,79,0.00,,,0.00,VWS V14.01,2013-11-07 00:45:00,
2013-11-06 19:50:00,55.1,48.7,30.14,SSW,205,2.0,5.0,79,0.00,,,0.00,VWS V14.01,2013-11-07 00:50:00,
2013-11-06 19:55:00,55.0,49.0,30.14,SSW,198,2.0,6.0,80,0.00,,,0.00,VWS V14.01,2013-11-07 00:55:00,
2013-11-06 20:00:00,54.8,48.8,30.14,South,187,5.0,6.0,80,0.00,,,0.00,VWS V14.01,2013-11-07 01:00:00,
2013-11-06 20:05:00,54.6,48.9,30.13,SE,130,0.0,6.0,81,0.00,,,0.00,VWS V14.01,2013-11-07 01:05:00,
2013-11-06 20:10:00,54.5,48.8,30.13,SSW,206,5.0,8.0,81,0.00,,,0.00,VWS V14.01,2013-11-07 01:10:00,
2013-11-06 20:15:00,54.4,48.7,30.13,SSW,207,6.0,6.0,81,0.00,,,0.00,VWS V14.01,2013-11-07 01:15:00,
2013-11-06 20:20:00,54.3,48.6,30.12,SSW,198,2.0,6.0,81,0.00,,,0.00,VWS V14.01,2013-11-07 01:20:00,
2013-11-06 20:25:00,54.2,48.5,30.12,South,171,2.0,6.0,81,0.00,,,0.00,VWS V14.01,2013-11-07 01:25:00,
2013-11-06 20:30:00,54.2,48.8,30.12,South,189,2.0,6.0,82,0.00,,,0.00,VWS V14.01,2013-11-07 01:30:00,
2013-11-06 20:35:00,54.2,48.8,30.12,SSW,192,1.0,6.0,82,0.00,,,0.00,VWS V14.01,2013-11-07 01:35:00,
2013-11-06 20:40:00,54.1,48.7,30.12,SSW,209,5.0,7.0,82,0.00,,,0.00,VWS V14.01,2013-11-07 01:40:00,
2013-11-06 20:45:00,54.1,48.7,30.12,WSW,239,1.0,5.0,82,0.00,,,0.00,VWS V14.01,2013-11-07 01:45:00,
2013-11-06 20:50:00,54.1,48.7,30.12,SSE,167,2.0,5.0,82,0.00,,,0.00,VWS V14.01,2013-11-07 01:50:00,
2013-11-06 20:55:00,54.1,48.7,30.12,SSW,205,0.0,3.0,82,0.00,,,0.00,VWS V14.01,2013-11-07 01:55:00,
2013-11-06 21:00:00,54.0,48.6,30.12,SSW,205,0.0,5.0,82,0.00,,,0.00,VWS V14.01,2013-11-07 02:00:00,
2013-11-06 21:05:00,54.0,49.0,30.11,SSW,205,2.0,6.0,83,0.00,,,0.00,VWS V14.01,2013-11-07 02:05:00,
2013-11-06 21:10:00,53.9,48.9,30.11,South,170,0.0,6.0,83,0.00,,,0.00,VWS V14.01,2013-11-07 02:10:00,
2013-11-06 21:15:00,53.9,48.9,30.11,South,186,1.0,4.0,83,0.00,,,0.00,VWS V14.01,2013-11-07 02:15:00,
2013-11-06 21:20:00,53.9,49.2,30.11,SSW,207,0.0,5.0,84,0.00,,,0.00,VWS V14.01,2013-11-07 02:20:00,
2013-11-06 21:25:00,53.9,49.2,30.11,SW,234,0.0,6.0,84,0.00,,,0.00,VWS V14.01,2013-11-07 02:25:00,
2013-11-06 21:30:00,53.9,49.2,30.11,South,178,2.0,6.0,84,0.00,,,0.00,VWS V14.01,2013-11-07 02:30:00,
2013-11-06 21:35:00,53.9,49.2,30.10,South,186,6.0,7.0,84,0.00,,,0.00,VWS V14.01,2013-11-07 02:35:00,
2013-11-06 21:40:00,53.9,49.2,30.10,SSE,159,3.0,7.0,84,0.00,,,0.00,VWS V14.01,2013-11-07 02:40:00,
2013-11-06 21:45:00,53.8,49.1,30.10,SSE,152,4.0,5.0,84,0.00,,,0.00,VWS V14.01,2013-11-07 02:45:00,
2013-11-06 21:50:00,53.8,49.1,30.09,South,184,2.0,5.0,84,0.00,,,0.00,VWS V14.01,2013-11-07 02:50:00,
2013-11-06 21:55:00,53.7,49.3,30.09,South,186,2.0,3.0,85,0.00,,,0.00,VWS V14.01,2013-11-07 02:55:00,
2013-11-06 22:00:00,53.7,49.3,30.09,South,186,0.0,4.0,85,0.00,,,0.00,VWS V14.01,2013-11-07 03:00:00,
2013-11-06 22:05:00,53.7,49.3,30.09,South,186,0.0,2.0,85,0.00,,,0.00,VWS V14.01,2013-11-07 03:05:00,
2013-11-06 22:10:00,53.6,49.2,30.09,South,186,0.0,4.0,85,0.00,,,0.00,VWS V14.01,2013-11-07 03:10:00,
2013-11-06 22:15:00,53.6,49.2,30.09,South,186,0.0,1.0,85,0.00,,,0.00,VWS V14.01,2013-11-07 03:15:00,
2013-11-06 22:20:00,53.5,49.1,30.09,South,186,0.0,1.0,85,0.00,,,0.00,VWS V14.01,2013-11-07 03:20:00,
2013-11-06 22:25:00,53.4,49.0,30.09,South,186,0.0,1.0,85,0.00,,,0.00,VWS V14.01,2013-11-07 03:25:00,
2013-11-06 22:30:00,53.3,48.9,30.09,South,186,1.0,1.0,85,0.00,,,0.00,VWS V14.01,2013-11-07 03:30:00,
2013-11-06 22:35:00,53.2,48.8,30.08,South,186,0.0,3.0,85,0.00,,,0.00,VWS V14.01,2013-11-07 03:35:00,
2013-11-06 22:40:00,53.2,48.8,30.08,South,186,0.0,3.0,85,0.00,,,0.00,VWS V14.01,2013-11-07 03:40:00,
2013-11-06 22:45:00,53.1,49.0,30.08,South,186,0.0,0.0,86,0.00,,,0.00,VWS V14.01,2013-11-07 03:45:00,
2013-11-06 22:50:00,53.0,48.9,30.07,South,186,0.0,4.0,86,0.00,,,0.00,VWS V14.01,2013-11-07 03:50:00,
2013-11-06 22:55:00,52.9,48.8,30.07,South,186,0.0,3.0,86,0.00,,,0.00,VWS V14.01,2013-11-07 03:55:00,
2013-11-06 23:00:00,52.8,49.0,30.07,South,188,0.0,3.0,87,0.00,,,0.00,VWS V14.01,2013-11-07 04:00:00,
2013-11-06 23:05:00,52.8,49.0,30.06,SSW,195,1.0,4.0,87,0.00,,,0.00,VWS V14.01,2013-11-07 04:05:00,
2013-11-06 23:10:00,52.7,49.0,30.06,SSW,195,0.0,4.0,87,0.00,,,0.00,VWS V14.01,2013-11-07 04:10:00,
2013-11-06 23:15:00,52.7,49.0,30.06,SSW,195,0.0,0.0,87,0.00,,,0.00,VWS V14.01,2013-11-07 04:15:00,
2013-11-06 23:20:00,52.6,48.8,30.06,SSW,196,0.0,4.0,87,0.00,,,0.00,VWS V14.01,2013-11-07 04:20:00,
2013-11-06 23:25:00,52.6,48.8,30.06,SSW,196,0.0,0.0,87,0.00,,,0.00,VWS V14.01,2013-11-07 04:25:00,
2013-11-06 23:30:00,52.5,48.8,30.06,SSW,196,1.0,2.0,87,0.00,,,0.00,VWS V14.01,2013-11-07 04:30:00,
2013-11-06 23:35:00,52.4,48.7,30.05,South,188,0.0,2.0,87,0.00,,,0.00,VWS V14.01,2013-11-07 04:35:00,
2013-11-06 23:40:00,52.4,49.0,30.05,SSW,200,4.0,4.0,88,0.00,,,0.00,VWS V14.01,2013-11-07 04:40:00,
2013-11-06 23:45:00,52.4,49.0,30.05,SW,232,2.0,4.0,88,0.00,,,0.00,VWS V14.01,2013-11-07 04:45:00,
2013-11-06 23:50:00,52.4,49.0,30.05,SW,221,0.0,4.0,88,0.00,,,0.00,VWS V14.01,2013-11-07 04:50:00,
2013-11-06 23:55:00,52.5,49.0,30.05,NNE,28,3.0,6.0,88,0.00,,,0.00,VWS V14.01,2013-11-07 04:55:00,